Time,TemperatureF,DewpointF,PressureIn,WindDirection,WindDirectionDegrees,WindSpeedMPH,WindSpeedGustMPH,Humidity,HourlyPrecipIn,Conditions,Clouds,dailyrainin,SoftwareType,DateUTC
2013-06-24 00:01:00,75.3,67.4,29.93,NNW,341,3.0,6.0,76,0.00,,,0.00,WUHU216DAVISVP2,2013-06-24 05:01:00,
2013-06-24 00:06:00,75.1,67.6,29.93,NNW,341,0.0,5.0,77,0.00,,,0.00,WUHU216DAVISVP2,2013-06-24 05:06:00,
2013-06-24 00:11:00,74.9,67.4,29.93,NNW,341,3.0,5.0,77,0.00,,,0.00,WUHU216DAVISVP2,2013-06-24 05:11:00,
2013-06-24 00:16:00,74.8,67.6,29.93,NNW,341,2.0,5.0,78,0.00,,,0.00,WUHU216DAVISVP2,2013-06-24 05:16:00,
2013-06-24 00:21:00,74.6,67.4,29.93,NNW,341,2.0,5.0,78,0.00,,,0.00,WUHU216DAVISVP2,2013-06-24 05:21:00,
2013-06-24 00:26:00,74.4,67.6,29.94,NNW,332,5.0,6.0,79,0.00,,,0.00,WUHU216DAVISVP2,2013-06-24 05:26:00,
2013-06-24 00:31:00,74.2,67.4,29.94,NNW,331,2.0,6.0,79,0.00,,,0.00,WUHU216DAVISVP2,2013-06-24 05:31:00,
2013-06-24 00:36:00,74.0,67.2,29.93,NNW,331,2.0,6.0,79,0.00,,,0.00,WUHU216DAVISVP2,2013-06-24 05:36:00,
2013-06-24 00:41:00,73.9,67.4,29.93,NW,322,1.0,7.0,80,0.00,,,0.00,WUHU216DAVISVP2,2013-06-24 05:41:00,
2013-06-24 00:47:00,73.8,67.3,29.93,NW,322,1.0,7.0,80,0.00,,,0.00,WUHU216DAVISVP2,2013-06-24 05:47:00,
2013-06-24 00:52:00,73.7,67.6,29.94,NW,322,3.0,7.0,81,0.00,,,0.00,WUHU216DAVISVP2,2013-06-24 05:52:00,
2013-06-24 00:57:00,73.5,67.4,29.94,NW,322,2.0,5.0,81,0.00,,,0.00,WUHU216DAVISVP2,2013-06-24 05:57:00,
2013-06-24 01:02:00,73.4,67.6,29.93,NNW,331,6.0,8.0,82,0.00,,,0.00,WUHU216DAVISVP2,2013-06-24 06:02:00,
2013-06-24 01:07:00,73.4,67.6,29.93,NNW,337,3.0,8.0,82,0.00,,,0.00,WUHU216DAVISVP2,2013-06-24 06:07:00,
2013-06-24 01:12:00,73.3,67.5,29.94,NNW,343,6.0,8.0,82,0.00,,,0.00,WUHU216DAVISVP2,2013-06-24 06:12:00,
2013-06-24 01:17:00,73.3,67.5,29.94,NNW,343,4.0,9.0,82,0.00,,,0.00,WUHU216DAVISVP2,2013-06-24 06:17:00,
2013-06-24 01:22:00,73.4,68.0,29.93,NW,325,5.0,10.0,83,0.00,,,0.00,WUHU216DAVISVP2,2013-06-24 06:22:00,
2013-06-24 01:28:00,73.5,67.7,29.93,NNW,343,4.0,10.0,82,0.00,,,0.00,WUHU216DAVISVP2,2013-06-24 06:28:00,
2013-06-24 01:33:00,73.5,68.1,29.93,NNW,339,3.0,10.0,83,0.00,,,0.00,WUHU216DAVISVP2,2013-06-24 06:33:00,
2013-06-24 01:38:00,73.4,68.0,29.93,North,353,3.0,10.0,83,0.00,,,0.00,WUHU216DAVISVP2,2013-06-24 06:38:00,
2013-06-24 01:43:00,73.4,68.0,29.93,North,353,7.0,9.0,83,0.00,,,0.00,WUHU216DAVISVP2,2013-06-24 06:43:00,
2013-06-24 01:48:00,73.4,68.0,29.93,NNW,341,4.0,9.0,83,0.00,,,0.00,WUHU216DAVISVP2,2013-06-24 06:48:00,
2013-06-24 01:53:00,73.4,67.7,29.93,North,2,3.0,9.0,82,0.00,,,0.00,WUHU216DAVISVP2,2013-06-24 06:53:00,
2013-06-24 01:59:00,73.4,67.7,29.93,North,10,2.0,9.0,82,0.00,,,0.00,WUHU216DAVISVP2,2013-06-24 06:59:00,
2013-06-24 02:04:00,73.6,67.8,29.93,North,1,2.0,8.0,82,0.00,,,0.00,WUHU216DAVISVP2,2013-06-24 07:04:00,
2013-06-24 02:09:00,73.6,67.8,29.93,NNW,339,2.0,9.0,82,0.00,,,0.00,WUHU216DAVISVP2,2013-06-24 07:09:00,
2013-06-24 02:14:00,73.7,67.6,29.93,North,8,6.0,9.0,81,0.00,,,0.00,WUHU216DAVISVP2,2013-06-24 07:14:00,
2013-06-24 02:19:00,73.8,67.7,29.93,North,3,1.0,9.0,81,0.00,,,0.00,WUHU216DAVISVP2,2013-06-24 07:19:00,
2013-06-24 02:24:00,73.8,67.7,29.93,North,11,2.0,11.0,81,0.00,,,0.00,WUHU216DAVISVP2,2013-06-24 07:24:00,
2013-06-24 02:29:00,73.8,67.7,29.93,NNE,15,2.0,12.0,81,0.00,,,0.00,WUHU216DAVISVP2,2013-06-24 07:29:00,
2013-06-24 02:34:00,73.9,67.8,29.93,North,8,2.0,12.0,81,0.00,,,0.00,WUHU216DAVISVP2,2013-06-24 07:34:00,
2013-06-24 02:39:00,74.0,67.6,29.93,North,353,6.0,12.0,80,0.00,,,0.00,WUHU216DAVISVP2,2013-06-24 07:39:00,
2013-06-24 02:44:00,74.1,67.6,29.93,North,356,5.0,12.0,80,0.00,,,0.00,WUHU216DAVISVP2,2013-06-24 07:44:00,
2013-06-24 02:49:00,74.0,67.5,29.93,North,356,7.0,10.0,80,0.00,,,0.00,WUHU216DAVISVP2,2013-06-24 07:49:00,
2013-06-24 02:55:00,74.0,67.9,29.92,NNW,339,2.0,9.0,81,0.00,,,0.00,WUHU216DAVISVP2,2013-06-24 07:55:00,
2013-06-24 03:00:00,73.9,67.8,29.92,North,360,3.0,10.0,81,0.00,,,0.00,WUHU216DAVISVP2,2013-06-24 08:00:00,
2013-06-24 03:05:00,73.8,67.7,29.92,North,356,7.0,10.0,81,0.00,,,0.00,WUHU216DAVISVP2,2013-06-24 08:05:00,
2013-06-24 03:10:00,73.8,67.7,29.92,North,4,3.0,10.0,81,0.00,,,0.00,WUHU216DAVISVP2,2013-06-24 08:10:00,
2013-06-24 03:16:00,73.9,67.7,29.92,North,357,1.0,10.0,81,0.00,,,0.00,WUHU216DAVISVP2,2013-06-24 08:16:00,
2013-06-24 03:21:00,73.8,67.7,29.92,North,11,2.0,10.0,81,0.00,,,0.00,WUHU216DAVISVP2,2013-06-24 08:21:00,
2013-06-24 03:26:00,73.8,67.7,29.92,North,358,6.0,10.0,81,0.00,,,0.00,WUHU216DAVISVP2,2013-06-24 08:26:00,
2013-06-24 03:31:00,73.8,67.7,29.92,NE,35,1.0,10.0,81,0.00,,,0.00,WUHU216DAVISVP2,2013-06-24 08:31:00,
2013-06-24 03:36:00,73.7,67.6,29.92,North,10,3.0,10.0,81,0.00,,,0.00,WUHU216DAVISVP2,2013-06-24 08:36:00,
2013-06-24 03:41:00,73.7,67.5,29.92,North,359,6.0,10.0,81,0.00,,,0.00,WUHU216DAVISVP2,2013-06-24 08:41:00,
2013-06-24 03:46:00,73.5,67.4,29.92,North,356,3.0,9.0,81,0.00,,,0.00,WUHU216DAVISVP2,2013-06-24 08:46:00,
2013-06-24 03:51:00,73.3,67.5,29.92,North,356,3.0,9.0,82,0.00,,,0.00,WUHU216DAVISVP2,2013-06-24 08:51:00,
2013-06-24 03:57:00,73.2,67.5,29.92,North,356,3.0,9.0,82,0.00,,,0.00,WUHU216DAVISVP2,2013-06-24 08:57:00,
2013-06-24 04:02:00,73.0,67.3,29.92,North,353,4.0,7.0,82,0.00,,,0.00,WUHU216DAVISVP2,2013-06-24 09:02:00,
2013-06-24 04:07:00,73.0,67.6,29.92,NNW,341,3.0,9.0,83,0.00,,,0.00,WUHU216DAVISVP2,2013-06-24 09:07:00,
2013-06-24 04:12:00,72.9,67.5,29.92,North,358,1.0,9.0,83,0.00,,,0.00,WUHU216DAVISVP2,2013-06-24 09:12:00,
2013-06-24 04:17:00,72.7,67.3,29.92,NNE,15,1.0,9.0,83,0.00,,,0.00,WUHU216DAVISVP2,2013-06-24 09:17:00,
2013-06-24 04:22:00,72.7,67.3,29.93,NNE,15,2.0,9.0,83,0.00,,,0.00,WUHU216DAVISVP2,2013-06-24 09:22:00,
2013-06-24 04:27:00,72.6,67.5,29.93,NNE,15,3.0,8.0,84,0.00,,,0.00,WUHU216DAVISVP2,2013-06-24 09:27:00,
2013-06-24 04:33:00,72.4,67.3,29.93,North,6,1.0,7.0,84,0.00,,,0.00,WUHU216DAVISVP2,2013-06-24 09:33:00,
2013-06-24 04:38:00,72.2,67.2,29.93,North,6,0.0,7.0,84,0.00,,,0.00,WUHU216DAVISVP2,2013-06-24 09:38:00,
2013-06-24 04:43:00,72.2,67.4,29.93,North,6,3.0,7.0,85,0.00,,,0.00,WUHU216DAVISVP2,2013-06-24 09:43:00,
2013-06-24 04:48:00,72.0,67.3,29.93,North,6,3.0,6.0,85,0.00,,,0.00,WUHU216DAVISVP2,2013-06-24 09:48:00,
2013-06-24 04:53:00,71.9,67.2,29.93,North,6,0.0,6.0,85,0.00,,,0.00,WUHU216DAVISVP2,2013-06-24 09:53:00,
2013-06-24 04:58:00,71.7,67.4,29.93,North,6,4.0,6.0,86,0.00,,,0.00,WUHU216DAVISVP2,2013-06-24 09:58:00,
2013-06-24 05:03:00,71.7,67.3,29.93,North,6,2.0,6.0,86,0.00,,,0.00,WUHU216DAVISVP2,2013-06-24 10:03:00,
2013-06-24 05:09:00,71.6,67.2,29.94,North,6,3.0,6.0,86,0.00,,,0.00,WUHU216DAVISVP2,2013-06-24 10:09:00,
2013-06-24 05:14:00,71.4,67.0,29.93,North,6,4.0,6.0,86,0.00,,,0.00,WUHU216DAVISVP2,2013-06-24 10:14:00,
2013-06-24 05:19:00,71.3,67.2,29.93,North,6,0.0,6.0,87,0.00,,,0.00,WUHU216DAVISVP2,2013-06-24 10:19:00,
2013-06-24 05:24:00,71.2,67.1,29.94,North,6,3.0,6.0,87,0.00,,,0.00,WUHU216DAVISVP2,2013-06-24 10:24:00,
2013-06-24 05:29:00,71.2,67.2,29.94,North,4,7.0,8.0,87,0.00,,,0.00,WUHU216DAVISVP2,2013-06-24 10:29:00,
2013-06-24 05:34:00,71.3,67.2,29.93,North,4,6.0,8.0,87,0.00,,,0.00,WUHU216DAVISVP2,2013-06-24 10:34:00,
2013-06-24 05:39:00,71.2,67.1,29.93,North,352,4.0,8.0,87,0.00,,,0.00,WUHU216DAVISVP2,2013-06-24 10:39:00,
2013-06-24 05:44:00,71.1,67.1,29.93,NNW,342,5.0,8.0,87,0.00,,,0.00,WUHU216DAVISVP2,2013-06-24 10:44:00,
2013-06-24 05:49:00,71.1,67.3,29.93,NNW,343,5.0,8.0,88,0.00,,,0.00,WUHU216DAVISVP2,2013-06-24 10:49:00,
2013-06-24 05:54:00,71.0,67.3,29.94,NNW,337,4.0,8.0,88,0.00,,,0.00,WUHU216DAVISVP2,2013-06-24 10:54:00,
2013-06-24 06:00:00,71.0,67.3,29.94,NNW,336,4.0,8.0,88,0.00,,,0.00,WUHU216DAVISVP2,2013-06-24 11:00:00,
2013-06-24 06:05:00,70.9,67.1,29.94,NNW,333,6.0,8.0,88,0.00,,,0.00,WUHU216DAVISVP2,2013-06-24 11:05:00,
2013-06-24 06:10:00,70.9,67.2,29.94,NNW,335,5.0,8.0,88,0.00,,,0.00,WUHU216DAVISVP2,2013-06-24 11:10:00,
2013-06-24 06:15:00,70.9,67.5,29.94,NNW,331,4.0,8.0,89,0.00,,,0.00,WUHU216DAVISVP2,2013-06-24 11:15:00,
2013-06-24 06:20:00,71.0,67.6,29.94,NNW,327,4.0,9.0,89,0.00,,,0.00,WUHU216DAVISVP2,2013-06-24 11:20:00,
2013-06-24 06:25:00,71.1,67.7,29.95,NNW,331,4.0,9.0,89,0.00,,,0.00,WUHU216DAVISVP2,2013-06-24 11:25:00,
2013-06-24 06:30:00,71.1,67.7,29.94,NNW,332,2.0,9.0,89,0.00,,,0.00,WUHU216DAVISVP2,2013-06-24 11:30:00,
2013-06-24 06:35:00,71.3,67.9,29.95,NNW,333,2.0,8.0,89,0.00,,,0.00,WUHU216DAVISVP2,2013-06-24 11:35:00,
2013-06-24 06:40:00,71.4,68.0,29.95,NNW,333,4.0,8.0,89,0.00,,,0.00,WUHU216DAVISVP2,2013-06-24 11:40:00,
2013-06-24 06:46:00,71.6,68.1,29.95,NNW,337,4.0,8.0,89,0.00,,,0.00,WUHU216DAVISVP2,2013-06-24 11:46:00,
2013-06-24 06:51:00,71.7,67.9,29.95,NNW,336,7.0,8.0,88,0.00,,,0.00,WUHU216DAVISVP2,2013-06-24 11:51:00,
2013-06-24 06:56:00,71.9,68.2,29.95,NNW,327,4.0,9.0,88,0.00,,,0.00,WUHU216DAVISVP2,2013-06-24 11:56:00,
2013-06-24 07:01:00,72.1,68.3,29.95,NNW,337,1.0,9.0,88,0.00,,,0.00,WUHU216DAVISVP2,2013-06-24 12:01:00,
2013-06-24 07:06:00,72.3,68.5,29.95,NNW,333,5.0,9.0,88,0.00,,,0.00,WUHU216DAVISVP2,2013-06-24 12:06:00,
2013-06-24 07:11:00,72.6,68.9,29.95,NNW,338,4.0,9.0,88,0.00,,,0.00,WUHU216DAVISVP2,2013-06-24 12:11:00,
2013-06-24 07:17:00,72.9,68.8,29.95,NNW,343,3.0,8.0,87,0.00,,,0.00,WUHU216DAVISVP2,2013-06-24 12:17:00,
2013-06-24 07:22:00,73.2,69.1,29.95,NNW,344,1.0,9.0,87,0.00,,,0.00,WUHU216DAVISVP2,2013-06-24 12:22:00,
2013-06-24 07:27:00,73.7,69.6,29.96,North,354,6.0,9.0,87,0.00,,,0.00,WUHU216DAVISVP2,2013-06-24 12:27:00,
2013-06-24 07:32:00,74.0,69.6,29.96,NNW,341,4.0,11.0,86,0.00,,,0.00,WUHU216DAVISVP2,2013-06-24 12:32:00,
2013-06-24 07:37:00,74.5,69.8,29.96,NNW,347,4.0,11.0,85,0.00,,,0.00,WUHU216DAVISVP2,2013-06-24 12:37:00,
2013-06-24 07:42:00,74.9,70.1,29.96,NNW,348,6.0,11.0,85,0.00,,,0.00,WUHU216DAVISVP2,2013-06-24 12:42:00,
2013-06-24 07:47:00,75.2,70.1,29.96,North,358,5.0,11.0,84,0.00,,,0.00,WUHU216DAVISVP2,2013-06-24 12:47:00,
2013-06-24 07:52:00,75.5,70.4,29.97,NNW,346,4.0,9.0,84,0.00,,,0.00,WUHU216DAVISVP2,2013-06-24 12:52:00,
2013-06-24 07:57:00,75.9,70.7,29.97,NNW,330,6.0,10.0,84,0.00,,,0.00,WUHU216DAVISVP2,2013-06-24 12:57:00,
2013-06-24 08:02:00,76.0,70.6,29.97,NNW,347,5.0,10.0,83,0.00,,,0.00,WUHU216DAVISVP2,2013-06-24 13:02:00,
2013-06-24 08:07:00,76.1,70.6,29.98,North,356,1.0,11.0,83,0.00,,,0.00,WUHU216DAVISVP2,2013-06-24 13:07:00,
2013-06-24 08:12:00,76.1,70.6,29.98,North,2,3.0,11.0,83,0.00,,,0.00,WUHU216DAVISVP2,2013-06-24 13:12:00,
2013-06-24 08:17:00,76.2,70.4,29.98,NNW,348,1.0,11.0,82,0.00,,,0.00,WUHU216DAVISVP2,2013-06-24 13:17:00,
2013-06-24 08:22:00,76.1,70.3,29.98,North,11,4.0,10.0,82,0.00,,,0.00,WUHU216DAVISVP2,2013-06-24 13:22:00,
2013-06-24 08:27:00,76.1,70.7,29.98,NNE,20,0.0,10.0,83,0.00,,,0.00,WUHU216DAVISVP2,2013-06-24 13:27:00,
2013-06-24 08:32:00,76.3,70.5,29.98,NE,50,3.0,10.0,82,0.00,,,0.00,WUHU216DAVISVP2,2013-06-24 13:32:00,
2013-06-24 08:37:00,76.3,70.5,29.99,NNE,31,0.0,10.0,82,0.00,,,0.00,WUHU216DAVISVP2,2013-06-24 13:37:00,
2013-06-24 08:42:00,76.2,70.0,29.99,NNE,20,5.0,10.0,81,0.00,,,0.00,WUHU216DAVISVP2,2013-06-24 13:42:00,
2013-06-24 08:47:00,76.2,70.0,29.99,NNE,20,3.0,10.0,81,0.00,,,0.00,WUHU216DAVISVP2,2013-06-24 13:47:00,
2013-06-24 08:52:00,76.3,70.1,29.99,NE,40,3.0,11.0,81,0.00,,,0.00,WUHU216DAVISVP2,2013-06-24 13:52:00,
2013-06-24 08:57:00,76.4,70.2,29.99,North,6,1.0,11.0,81,0.00,,,0.00,WUHU216DAVISVP2,2013-06-24 13:57:00,
2013-06-24 09:03:00,76.6,70.4,29.99,NE,43,2.0,11.0,81,0.00,,,0.00,WUHU216DAVISVP2,2013-06-24 14:03:00,
2013-06-24 09:08:00,76.8,70.3,29.99,NNE,20,2.0,11.0,80,0.00,,,0.00,WUHU216DAVISVP2,2013-06-24 14:08:00,
2013-06-24 09:13:00,77.0,70.4,29.99,NE,37,2.0,10.0,80,0.00,,,0.00,WUHU216DAVISVP2,2013-06-24 14:13:00,
2013-06-24 09:18:00,77.0,70.5,29.99,NE,39,8.0,10.0,80,0.00,,,0.00,WUHU216DAVISVP2,2013-06-24 14:18:00,
2013-06-24 09:23:00,77.3,70.0,29.99,NE,50,2.0,12.0,78,0.00,,,0.00,WUHU216DAVISVP2,2013-06-24 14:23:00,
2013-06-24 09:28:00,77.3,70.4,29.99,NE,55,0.0,13.0,79,0.00,,,0.00,WUHU216DAVISVP2,2013-06-24 14:28:00,
2013-06-24 09:33:00,77.8,70.5,29.99,NNE,25,1.0,13.0,78,0.00,,,0.00,WUHU216DAVISVP2,2013-06-24 14:33:00,
2013-06-24 09:38:00,77.7,69.7,29.99,NE,44,3.0,13.0,76,0.00,,,0.00,WUHU216DAVISVP2,2013-06-24 14:38:00,
2013-06-24 09:44:00,77.7,70.1,29.99,NE,48,10.0,13.0,77,0.00,,,0.00,WUHU216DAVISVP2,2013-06-24 14:44:00,
2013-06-24 09:49:00,77.9,70.2,29.99,NNE,25,2.0,13.0,77,0.00,,,0.00,WUHU216DAVISVP2,2013-06-24 14:49:00,
2013-06-24 09:54:00,78.0,69.6,29.98,NNE,31,3.0,13.0,75,0.00,,,0.00,WUHU216DAVISVP2,2013-06-24 14:54:00,
2013-06-24 09:59:00,78.0,69.6,29.98,NE,44,1.0,13.0,75,0.00,,,0.00,WUHU216DAVISVP2,2013-06-24 14:59:00,
2013-06-24 10:04:00,78.2,69.8,29.98,North,4,4.0,13.0,75,0.00,,,0.00,WUHU216DAVISVP2,2013-06-24 15:04:00,
2013-06-24 10:09:00,78.3,69.5,29.98,North,11,7.0,15.0,74,0.00,,,0.00,WUHU216DAVISVP2,2013-06-24 15:09:00,
2013-06-24 10:14:00,78.2,69.0,29.98,NNE,25,10.0,15.0,73,0.00,,,0.00,WUHU216DAVISVP2,2013-06-24 15:14:00,
2013-06-24 10:19:00,78.1,69.7,29.98,ENE,65,5.0,15.0,75,0.00,,,0.00,WUHU216DAVISVP2,2013-06-24 15:19:00,
2013-06-24 10:24:00,78.3,69.5,29.98,NNE,15,3.0,14.0,74,0.00,,,0.00,WUHU216DAVISVP2,2013-06-24 15:24:00,
2013-06-24 10:30:00,78.3,69.1,29.98,NE,53,2.0,14.0,73,0.00,,,0.00,WUHU216DAVISVP2,2013-06-24 15:30:00,
2013-06-24 10:35:00,78.3,68.7,29.97,NNE,25,0.0,14.0,72,0.00,,,0.00,WUHU216DAVISVP2,2013-06-24 15:35:00,
2013-06-24 10:40:00,78.2,69.1,29.97,NNE,15,1.0,14.0,73,0.00,,,0.00,WUHU216DAVISVP2,2013-06-24 15:40:00,
2013-06-24 10:45:00,78.3,68.4,29.98,ENE,58,4.0,14.0,71,0.00,,,0.00,WUHU216DAVISVP2,2013-06-24 15:45:00,
2013-06-24 10:50:00,78.2,68.7,29.98,North,9,4.0,14.0,72,0.00,,,0.00,WUHU216DAVISVP2,2013-06-24 15:50:00,
2013-06-24 10:55:00,78.3,69.6,29.98,North,7,4.0,15.0,74,0.00,,,0.00,WUHU216DAVISVP2,2013-06-24 15:55:00,
2013-06-24 11:00:00,78.8,69.2,29.98,NE,52,3.0,15.0,72,0.00,,,0.00,WUHU216DAVISVP2,2013-06-24 16:00:00,
2013-06-24 11:05:00,78.6,69.5,29.98,North,10,9.0,15.0,73,0.00,,,0.00,WUHU216DAVISVP2,2013-06-24 16:05:00,
2013-06-24 11:10:00,78.5,68.5,29.98,NE,56,2.0,14.0,71,0.00,,,0.00,WUHU216DAVISVP2,2013-06-24 16:10:00,
2013-06-24 11:15:00,78.4,69.2,29.97,North,6,1.0,14.0,73,0.00,,,0.00,WUHU216DAVISVP2,2013-06-24 16:15:00,
2013-06-24 11:21:00,78.6,69.0,29.98,NE,41,0.0,14.0,72,0.00,,,0.00,WUHU216DAVISVP2,2013-06-24 16:21:00,
2013-06-24 11:26:00,78.5,68.9,29.98,NNE,15,3.0,14.0,72,0.00,,,0.00,WUHU216DAVISVP2,2013-06-24 16:26:00,
2013-06-24 11:31:00,78.8,70.0,29.98,North,8,9.0,11.0,74,0.00,,,0.00,WUHU216DAVISVP2,2013-06-24 16:31:00,
2013-06-24 11:36:00,79.2,70.0,29.97,ENE,59,4.0,13.0,73,0.00,,,0.00,WUHU216DAVISVP2,2013-06-24 16:36:00,
2013-06-24 11:42:00,79.1,69.5,29.98,NNE,25,7.0,13.0,72,0.00,,,0.00,WUHU216DAVISVP2,2013-06-24 16:42:00,
2013-06-24 11:47:00,79.4,69.4,29.97,ENE,75,0.0,14.0,71,0.00,,,0.00,WUHU216DAVISVP2,2013-06-24 16:47:00,
2013-06-24 11:52:00,79.5,69.1,29.97,NE,46,1.0,15.0,70,0.00,,,0.00,WUHU216DAVISVP2,2013-06-24 16:52:00,
2013-06-24 11:57:00,79.7,69.3,29.97,NNE,33,1.0,15.0,70,0.00,,,0.00,WUHU216DAVISVP2,2013-06-24 16:57:00,
2013-06-24 12:02:00,79.6,68.7,29.97,NNE,33,2.0,15.0,69,0.00,,,0.00,WUHU216DAVISVP2,2013-06-24 17:02:00,
2013-06-24 12:07:00,79.5,68.3,29.98,NNE,20,1.0,15.0,68,0.00,,,0.00,WUHU216DAVISVP2,2013-06-24 17:07:00,
2013-06-24 12:12:00,79.1,68.3,29.97,North,2,6.0,13.0,69,0.00,,,0.00,WUHU216DAVISVP2,2013-06-24 17:12:00,
2013-06-24 12:17:00,79.3,69.6,29.97,NE,52,1.0,13.0,72,0.00,,,0.00,WUHU216DAVISVP2,2013-06-24 17:17:00,
2013-06-24 12:22:00,79.6,68.4,29.97,North,11,3.0,13.0,68,0.00,,,0.00,WUHU216DAVISVP2,2013-06-24 17:22:00,
2013-06-24 12:27:00,79.8,69.4,29.96,ENE,57,0.0,14.0,70,0.00,,,0.00,WUHU216DAVISVP2,2013-06-24 17:27:00,
2013-06-24 12:32:00,79.5,68.2,29.96,ENE,69,8.0,14.0,68,0.00,,,0.00,WUHU216DAVISVP2,2013-06-24 17:32:00,
2013-06-24 12:37:00,79.5,68.7,29.96,ENE,62,5.0,14.0,69,0.00,,,0.00,WUHU216DAVISVP2,2013-06-24 17:37:00,
2013-06-24 12:42:00,79.6,68.4,29.96,ENE,69,1.0,13.0,68,0.00,,,0.00,WUHU216DAVISVP2,2013-06-24 17:42:00,
2013-06-24 12:48:00,80.2,68.5,29.96,North,360,7.0,14.0,67,0.00,,,0.00,WUHU216DAVISVP2,2013-06-24 17:48:00,
2013-06-24 12:53:00,80.4,67.8,29.96,NNE,15,3.0,14.0,65,0.00,,,0.00,WUHU216DAVISVP2,2013-06-24 17:53:00,
2013-06-24 12:58:00,80.3,68.6,29.96,NE,48,8.0,14.0,67,0.00,,,0.00,WUHU216DAVISVP2,2013-06-24 17:58:00,
2013-06-24 13:04:00,80.4,68.7,29.95,NNW,345,0.0,14.0,67,0.00,,,0.00,WUHU216DAVISVP2,2013-06-24 18:04:00,
2013-06-24 13:09:00,80.8,67.3,29.95,NE,34,3.0,17.0,63,0.00,,,0.00,WUHU216DAVISVP2,2013-06-24 18:09:00,
2013-06-24 13:14:00,80.9,68.3,29.95,North,357,10.0,17.0,65,0.00,,,0.00,WUHU216DAVISVP2,2013-06-24 18:14:00,
2013-06-24 13:19:00,81.0,67.0,29.94,East,86,5.0,17.0,62,0.00,,,0.00,WUHU216DAVISVP2,2013-06-24 18:19:00,
2013-06-24 13:25:00,81.1,68.9,29.94,NNE,15,0.0,17.0,66,0.00,,,0.00,WUHU216DAVISVP2,2013-06-24 18:25:00,
2013-06-24 13:30:00,81.1,68.0,29.94,NNE,15,3.0,15.0,64,0.00,,,0.00,WUHU216DAVISVP2,2013-06-24 18:30:00,
2013-06-24 13:35:00,81.3,67.8,29.94,NNE,15,3.0,13.0,63,0.00,,,0.00,WUHU216DAVISVP2,2013-06-24 18:35:00,
2013-06-24 13:40:00,81.6,67.6,29.94,NNE,33,4.0,12.0,62,0.00,,,0.00,WUHU216DAVISVP2,2013-06-24 18:40:00,
2013-06-24 13:45:00,82.1,68.0,29.94,NNE,15,3.0,12.0,62,0.00,,,0.00,WUHU216DAVISVP2,2013-06-24 18:45:00,
2013-06-24 13:50:00,82.3,67.3,29.94,North,11,2.0,16.0,60,0.00,,,0.00,WUHU216DAVISVP2,2013-06-24 18:50:00,
2013-06-24 13:55:00,82.5,66.9,29.94,North,2,9.0,16.0,59,0.00,,,0.00,WUHU216DAVISVP2,2013-06-24 18:55:00,
2013-06-24 14:00:00,82.4,66.9,29.93,NE,52,9.0,16.0,59,0.00,,,0.00,WUHU216DAVISVP2,2013-06-24 19:00:00,
2013-06-24 14:05:00,82.1,66.6,29.93,NNE,20,6.0,16.0,59,0.00,,,0.00,WUHU216DAVISVP2,2013-06-24 19:05:00,
2013-06-24 14:10:00,82.3,67.3,29.93,NE,37,7.0,14.0,60,0.00,,,0.00,WUHU216DAVISVP2,2013-06-24 19:10:00,
2013-06-24 14:16:00,82.7,66.6,29.93,North,353,1.0,15.0,58,0.00,,,0.00,WUHU216DAVISVP2,2013-06-24 19:16:00,
2013-06-24 14:21:00,82.5,67.0,29.92,ENE,64,5.0,15.0,59,0.00,,,0.00,WUHU216DAVISVP2,2013-06-24 19:21:00,
2013-06-24 14:26:00,82.8,67.7,29.92,NNE,15,1.0,15.0,60,0.00,,,0.00,WUHU216DAVISVP2,2013-06-24 19:26:00,
2013-06-24 14:31:00,83.3,68.7,29.92,NE,56,3.0,15.0,61,0.00,,,0.00,WUHU216DAVISVP2,2013-06-24 19:31:00,
2013-06-24 14:36:00,83.2,68.7,29.92,NE,37,9.0,11.0,61,0.00,,,0.00,WUHU216DAVISVP2,2013-06-24 19:36:00,
2013-06-24 14:41:00,83.5,67.9,29.92,NNE,25,0.0,11.0,59,0.00,,,0.00,WUHU216DAVISVP2,2013-06-24 19:41:00,
2013-06-24 14:46:00,83.8,67.2,29.92,NNE,25,7.0,15.0,57,0.00,,,0.00,WUHU216DAVISVP2,2013-06-24 19:46:00,
2013-06-24 14:52:00,84.2,67.0,29.91,NNE,31,7.0,15.0,56,0.00,,,0.00,WUHU216DAVISVP2,2013-06-24 19:52:00,
2013-06-24 14:57:00,84.2,67.5,29.92,NNE,15,2.0,16.0,57,0.00,,,0.00,WUHU216DAVISVP2,2013-06-24 19:57:00,
2013-06-24 15:02:00,84.6,68.4,29.91,NE,48,0.0,16.0,58,0.00,,,0.00,WUHU216DAVISVP2,2013-06-24 20:02:00,
2013-06-24 15:07:00,84.7,69.0,29.91,NNE,15,6.0,16.0,59,0.00,,,0.00,WUHU216DAVISVP2,2013-06-24 20:07:00,
2013-06-24 15:12:00,84.8,67.6,29.91,NNE,25,5.0,16.0,56,0.00,,,0.00,WUHU216DAVISVP2,2013-06-24 20:12:00,
2013-06-24 15:17:00,84.8,68.1,29.91,NNE,15,4.0,14.0,57,0.00,,,0.00,WUHU216DAVISVP2,2013-06-24 20:17:00,
2013-06-24 15:22:00,85.2,68.5,29.91,NNE,25,3.0,14.0,57,0.00,,,0.00,WUHU216DAVISVP2,2013-06-24 20:22:00,
2013-06-24 15:28:00,85.0,67.8,29.91,North,354,7.0,14.0,56,0.00,,,0.00,WUHU216DAVISVP2,2013-06-24 20:28:00,
2013-06-24 15:32:00,85.1,68.9,29.91,NNE,20,2.0,14.0,58,0.00,,,0.00,WUHU216DAVISVP2,2013-06-24 20:32:00,
2013-06-24 15:38:00,85.1,68.4,29.91,NE,41,2.0,14.0,57,0.00,,,0.00,WUHU216DAVISVP2,2013-06-24 20:38:00,
2013-06-24 15:43:00,85.2,68.5,29.91,NNE,25,4.0,13.0,57,0.00,,,0.00,WUHU216DAVISVP2,2013-06-24 20:43:00,
2013-06-24 15:48:00,85.5,68.8,29.91,NNE,30,2.0,13.0,57,0.00,,,0.00,WUHU216DAVISVP2,2013-06-24 20:48:00,
2013-06-24 15:53:00,85.6,68.3,29.91,North,6,3.0,13.0,56,0.00,,,0.00,WUHU216DAVISVP2,2013-06-24 20:53:00,
2013-06-24 15:58:00,86.0,68.2,29.91,NE,52,5.0,10.0,55,0.00,,,0.00,WUHU216DAVISVP2,2013-06-24 20:58:00,
2013-06-24 16:03:00,86.1,67.7,29.91,NE,45,3.0,14.0,54,0.00,,,0.00,WUHU216DAVISVP2,2013-06-24 21:03:00,
2013-06-24 16:08:00,86.3,67.3,29.90,ENE,66,7.0,14.0,53,0.00,,,0.00,WUHU216DAVISVP2,2013-06-24 21:08:00,
2013-06-24 16:13:00,86.5,68.7,29.90,North,355,10.0,14.0,55,0.00,,,0.00,WUHU216DAVISVP2,2013-06-24 21:13:00,
2013-06-24 16:18:00,86.9,69.0,29.90,NE,47,2.0,13.0,55,0.00,,,0.00,WUHU216DAVISVP2,2013-06-24 21:18:00,
2013-06-24 16:24:00,87.0,68.6,29.90,NNE,29,5.0,11.0,54,0.00,,,0.00,WUHU216DAVISVP2,2013-06-24 21:24:00,
2013-06-24 16:29:00,86.9,69.5,29.90,ENE,67,1.0,11.0,56,0.00,,,0.00,WUHU216DAVISVP2,2013-06-24 21:29:00,
2013-06-24 16:34:00,87.1,69.2,29.90,NE,44,1.0,11.0,55,0.00,,,0.00,WUHU216DAVISVP2,2013-06-24 21:34:00,
2013-06-24 16:39:00,87.4,70.1,29.90,NNE,15,4.0,11.0,56,0.00,,,0.00,WUHU216DAVISVP2,2013-06-24 21:39:00,
2013-06-24 16:44:00,87.8,69.8,29.90,North,358,3.0,11.0,55,0.00,,,0.00,WUHU216DAVISVP2,2013-06-24 21:44:00,
2013-06-24 16:50:00,87.7,69.8,29.90,North,7,6.0,10.0,55,0.00,,,0.00,WUHU216DAVISVP2,2013-06-24 21:50:00,
2013-06-24 16:55:00,88.0,70.0,29.89,NNE,15,2.0,11.0,55,0.00,,,0.00,WUHU216DAVISVP2,2013-06-24 21:55:00,
2013-06-24 17:00:00,88.2,70.8,29.89,North,3,0.0,11.0,56,0.00,,,0.00,WUHU216DAVISVP2,2013-06-24 22:00:00,
2013-06-24 17:05:00,88.7,70.7,29.89,ENE,68,4.0,11.0,55,0.00,,,0.00,WUHU216DAVISVP2,2013-06-24 22:05:00,
2013-06-24 17:10:00,88.6,70.6,29.89,NNE,29,3.0,11.0,55,0.00,,,0.00,WUHU216DAVISVP2,2013-06-24 22:10:00,
2013-06-24 17:16:00,88.4,70.4,29.88,NE,55,3.0,10.0,55,0.00,,,0.00,WUHU216DAVISVP2,2013-06-24 22:16:00,
2013-06-24 17:21:00,88.5,70.5,29.88,ENE,64,1.0,9.0,55,0.00,,,0.00,WUHU216DAVISVP2,2013-06-24 22:21:00,
2013-06-24 17:26:00,88.6,71.2,29.88,ENE,60,2.0,9.0,56,0.00,,,0.00,WUHU216DAVISVP2,2013-06-24 22:26:00,
2013-06-24 17:31:00,88.8,71.3,29.88,NNE,20,1.0,11.0,56,0.00,,,0.00,WUHU216DAVISVP2,2013-06-24 22:31:00,
2013-06-24 17:36:00,88.8,70.8,29.87,NNE,20,1.0,12.0,55,0.00,,,0.00,WUHU216DAVISVP2,2013-06-24 22:36:00,
2013-06-24 17:41:00,88.8,71.9,29.87,North,4,10.0,12.0,57,0.00,,,0.00,WUHU216DAVISVP2,2013-06-24 22:41:00,
2013-06-24 17:46:00,88.9,72.5,29.87,NNE,25,1.0,12.0,58,0.00,,,0.00,WUHU216DAVISVP2,2013-06-24 22:46:00,
2013-06-24 17:51:00,88.9,72.0,29.87,North,7,3.0,12.0,57,0.00,,,0.00,WUHU216DAVISVP2,2013-06-24 22:51:00,
2013-06-24 17:57:00,88.8,71.9,29.88,NNE,15,0.0,10.0,57,0.00,,,0.00,WUHU216DAVISVP2,2013-06-24 22:57:00,
2013-06-24 18:02:00,88.8,72.4,29.88,NE,44,1.0,9.0,58,0.00,,,0.00,WUHU216DAVISVP2,2013-06-24 23:02:00,
2013-06-24 18:07:00,89.0,74.1,29.88,NNE,25,3.0,8.0,61,0.00,,,0.00,WUHU216DAVISVP2,2013-06-24 23:07:00,
2013-06-24 18:12:00,89.1,72.7,29.88,North,351,5.0,10.0,58,0.00,,,0.00,WUHU216DAVISVP2,2013-06-24 23:12:00,
2013-06-24 18:18:00,89.0,73.6,29.88,North,4,3.0,10.0,60,0.00,,,0.00,WUHU216DAVISVP2,2013-06-24 23:18:00,
2013-06-24 18:23:00,88.9,72.5,29.88,NNE,20,4.0,10.0,58,0.00,,,0.00,WUHU216DAVISVP2,2013-06-24 23:23:00,
2013-06-24 18:28:00,88.7,72.8,29.88,North,3,1.0,9.0,59,0.00,,,0.00,WUHU216DAVISVP2,2013-06-24 23:28:00,
2013-06-24 18:33:00,88.6,72.7,29.88,NE,39,0.0,9.0,59,0.00,,,0.00,WUHU216DAVISVP2,2013-06-24 23:33:00,
2013-06-24 18:38:00,88.5,72.1,29.88,NNE,29,3.0,7.0,58,0.00,,,0.00,WUHU216DAVISVP2,2013-06-24 23:38:00,
2013-06-24 18:43:00,88.4,72.5,29.88,NNE,25,3.0,7.0,59,0.00,,,0.00,WUHU216DAVISVP2,2013-06-24 23:43:00,
2013-06-24 18:48:00,88.2,72.4,29.88,NNE,25,2.0,7.0,59,0.00,,,0.00,WUHU216DAVISVP2,2013-06-24 23:48:00,
2013-06-24 18:53:00,88.3,72.4,29.88,NNE,25,1.0,7.0,59,0.00,,,0.00,WUHU216DAVISVP2,2013-06-24 23:53:00,
2013-06-24 18:58:00,88.0,72.6,29.88,North,358,2.0,7.0,60,0.00,,,0.00,WUHU216DAVISVP2,2013-06-24 23:58:00,
2013-06-24 19:03:00,87.5,72.7,29.88,North,358,3.0,7.0,61,0.00,,,0.00,WUHU216DAVISVP2,2013-06-25 00:03:00,
2013-06-24 19:08:00,87.0,72.7,29.88,North,358,3.0,7.0,62,0.00,,,0.00,WUHU216DAVISVP2,2013-06-25 00:08:00,
2013-06-24 19:13:00,86.4,72.6,29.87,North,358,1.0,7.0,63,0.00,,,0.00,WUHU216DAVISVP2,2013-06-25 00:13:00,
2013-06-24 19:18:00,85.8,72.5,29.87,North,358,1.0,6.0,64,0.00,,,0.00,WUHU216DAVISVP2,2013-06-25 00:18:00,
2013-06-24 19:23:00,85.3,72.5,29.87,North,358,0.0,4.0,65,0.00,,,0.00,WUHU216DAVISVP2,2013-06-25 00:23:00,
2013-06-24 19:28:00,84.9,72.0,29.87,North,358,3.0,5.0,65,0.00,,,0.00,WUHU216DAVISVP2,2013-06-25 00:28:00,
2013-06-24 19:33:00,84.5,72.2,29.87,North,358,1.0,5.0,66,0.00,,,0.00,WUHU216DAVISVP2,2013-06-25 00:33:00,
2013-06-24 19:38:00,84.4,72.0,29.87,North,358,3.0,5.0,66,0.00,,,0.00,WUHU216DAVISVP2,2013-06-25 00:38:00,
2013-06-24 19:43:00,84.3,72.0,29.87,North,358,2.0,5.0,66,0.00,,,0.00,WUHU216DAVISVP2,2013-06-25 00:43:00,
2013-06-24 19:48:00,84.3,72.0,29.88,North,358,0.0,4.0,66,0.00,,,0.00,WUHU216DAVISVP2,2013-06-25 00:48:00,
2013-06-24 19:53:00,84.2,71.9,29.87,North,360,2.0,4.0,66,0.00,,,0.00,WUHU216DAVISVP2,2013-06-25 00:53:00,
2013-06-24 19:58:00,83.9,71.6,29.87,North,360,0.0,4.0,66,0.00,,,0.00,WUHU216DAVISVP2,2013-06-25 00:58:00,
2013-06-24 20:03:00,83.6,71.7,29.87,North,360,2.0,4.0,67,0.00,,,0.00,WUHU216DAVISVP2,2013-06-25 01:03:00,
2013-06-24 20:08:00,83.4,71.5,29.87,North,360,2.0,5.0,67,0.00,,,0.00,WUHU216DAVISVP2,2013-06-25 01:08:00,
2013-06-24 20:13:00,83.0,71.2,29.87,North,358,3.0,7.0,67,0.00,,,0.00,WUHU216DAVISVP2,2013-06-25 01:13:00,
2013-06-24 20:19:00,82.7,71.3,29.87,North,8,2.0,7.0,68,0.00,,,0.00,WUHU216DAVISVP2,2013-06-25 01:19:00,
2013-06-24 20:23:00,82.4,71.0,29.87,North,7,1.0,7.0,68,0.00,,,0.00,WUHU216DAVISVP2,2013-06-25 01:23:00,
2013-06-24 20:28:00,82.1,70.8,29.87,North,358,4.0,7.0,68,0.00,,,0.00,WUHU216DAVISVP2,2013-06-25 01:28:00,
2013-06-24 20:34:00,81.9,71.0,29.87,North,357,3.0,7.0,69,0.00,,,0.00,WUHU216DAVISVP2,2013-06-25 01:34:00,
2013-06-24 20:39:00,81.6,70.7,29.87,North,357,1.0,7.0,69,0.00,,,0.00,WUHU216DAVISVP2,2013-06-25 01:39:00,
2013-06-24 20:44:00,81.3,70.8,29.87,North,357,2.0,7.0,70,0.00,,,0.00,WUHU216DAVISVP2,2013-06-25 01:44:00,
2013-06-24 20:49:00,80.9,70.4,29.87,North,357,0.0,6.0,70,0.00,,,0.00,WUHU216DAVISVP2,2013-06-25 01:49:00,
2013-06-24 20:54:00,80.6,70.5,29.87,North,357,4.0,6.0,71,0.00,,,0.00,WUHU216DAVISVP2,2013-06-25 01:54:00,
2013-06-24 20:59:00,80.4,70.3,29.86,North,357,1.0,6.0,71,0.00,,,0.00,WUHU216DAVISVP2,2013-06-25 01:59:00,
2013-06-24 21:04:00,80.1,70.1,29.87,North,356,1.0,7.0,71,0.00,,,0.00,WUHU216DAVISVP2,2013-06-25 02:04:00,
2013-06-24 21:09:00,79.9,69.9,29.87,North,356,2.0,7.0,71,0.00,,,0.00,WUHU216DAVISVP2,2013-06-25 02:09:00,
2013-06-24 21:15:00,79.8,69.7,29.87,North,355,2.0,7.0,71,0.00,,,0.00,WUHU216DAVISVP2,2013-06-25 02:15:00,
2013-06-24 21:20:00,79.5,69.9,29.87,North,356,4.0,7.0,72,0.00,,,0.00,WUHU216DAVISVP2,2013-06-25 02:20:00,
2013-06-24 21:25:00,79.5,69.9,29.87,North,358,2.0,9.0,72,0.00,,,0.00,WUHU216DAVISVP2,2013-06-25 02:25:00,
2013-06-24 21:30:00,79.3,69.7,29.88,North,358,0.0,9.0,72,0.00,,,0.00,WUHU216DAVISVP2,2013-06-25 02:30:00,
2013-06-24 21:35:00,79.2,69.6,29.88,North,357,4.0,9.0,72,0.00,,,0.00,WUHU216DAVISVP2,2013-06-25 02:35:00,
2013-06-24 21:40:00,79.1,69.5,29.89,North,356,2.0,8.0,72,0.00,,,0.00,WUHU216DAVISVP2,2013-06-25 02:40:00,
2013-06-24 21:46:00,78.9,69.7,29.89,North,357,2.0,8.0,73,0.00,,,0.00,WUHU216DAVISVP2,2013-06-25 02:46:00,
2013-06-24 21:52:00,78.7,69.5,29.89,North,357,5.0,7.0,73,0.00,,,0.00,WUHU216DAVISVP2,2013-06-25 02:52:00,
2013-06-24 21:57:00,78.7,69.5,29.89,North,358,2.0,6.0,73,0.00,,,0.00,WUHU216DAVISVP2,2013-06-25 02:57:00,
2013-06-24 22:02:00,78.4,69.2,29.89,North,358,2.0,6.0,73,0.00,,,0.00,WUHU216DAVISVP2,2013-06-25 03:02:00,
2013-06-24 22:07:00,78.3,69.1,29.89,North,360,0.0,6.0,73,0.00,,,0.00,WUHU216DAVISVP2,2013-06-25 03:07:00,
2013-06-24 22:12:00,78.2,69.4,29.90,North,2,1.0,7.0,74,0.00,,,0.00,WUHU216DAVISVP2,2013-06-25 03:12:00,
2013-06-24 22:17:00,78.0,69.2,29.90,North,2,1.0,7.0,74,0.00,,,0.00,WUHU216DAVISVP2,2013-06-25 03:17:00,
2013-06-24 22:23:00,77.8,69.1,29.90,North,1,6.0,7.0,74,0.00,,,0.00,WUHU216DAVISVP2,2013-06-25 03:23:00,
2013-06-24 22:28:00,77.7,69.3,29.90,North,358,3.0,7.0,75,0.00,,,0.00,WUHU216DAVISVP2,2013-06-25 03:28:00,
2013-06-24 22:33:00,77.6,68.8,29.91,North,10,2.0,9.0,74,0.00,,,0.00,WUHU216DAVISVP2,2013-06-25 03:33:00,
2013-06-24 22:38:00,77.6,68.8,29.91,North,10,3.0,9.0,74,0.00,,,0.00,WUHU216DAVISVP2,2013-06-25 03:38:00,
2013-06-24 22:44:00,77.6,68.8,29.90,North,7,1.0,9.0,74,0.00,,,0.00,WUHU216DAVISVP2,2013-06-25 03:44:00,
2013-06-24 22:49:00,77.5,68.8,29.90,North,4,1.0,9.0,74,0.00,,,0.00,WUHU216DAVISVP2,2013-06-25 03:49:00,
2013-06-24 22:54:00,77.4,68.7,29.90,North,359,8.0,9.0,74,0.00,,,0.00,WUHU216DAVISVP2,2013-06-25 03:54:00,
2013-06-24 22:59:00,77.4,68.6,29.90,North,352,3.0,9.0,74,0.00,,,0.00,WUHU216DAVISVP2,2013-06-25 03:59:00,
2013-06-24 23:01:00,77.4,68.6,29.90,North,359,1.0,9.0,74,0.00,,,0.00,WUHU216DAVISVP2,2013-06-25 04:01:00,
2013-06-24 23:02:00,77.3,68.9,29.90,North,359,1.0,9.0,75,0.00,,,0.00,WUHU216DAVISVP2,2013-06-25 04:02:00,
2013-06-24 23:07:00,77.2,68.8,29.90,North,360,0.0,9.0,75,0.00,,,0.00,WUHU216DAVISVP2,2013-06-25 04:07:00,
2013-06-24 23:12:00,77.0,68.6,29.90,North,358,2.0,8.0,75,0.00,,,0.00,WUHU216DAVISVP2,2013-06-25 04:12:00,
2013-06-24 23:17:00,76.8,68.5,29.90,North,1,1.0,7.0,75,0.00,,,0.00,WUHU216DAVISVP2,2013-06-25 04:17:00,
2013-06-24 23:22:00,76.6,68.6,29.90,North,2,6.0,7.0,76,0.00,,,0.00,WUHU216DAVISVP2,2013-06-25 04:22:00,
2013-06-24 23:27:00,76.5,68.5,29.90,NNE,25,0.0,8.0,76,0.00,,,0.00,WUHU216DAVISVP2,2013-06-25 04:27:00,
2013-06-24 23:32:00,76.3,68.3,29.89,NNE,20,1.0,8.0,76,0.00,,,0.00,WUHU216DAVISVP2,2013-06-25 04:32:00,
2013-06-24 23:37:00,76.1,68.1,29.90,NNE,15,5.0,8.0,76,0.00,,,0.00,WUHU216DAVISVP2,2013-06-25 04:37:00,
2013-06-24 23:42:00,76.0,68.4,29.90,NNE,15,1.0,8.0,77,0.00,,,0.00,WUHU216DAVISVP2,2013-06-25 04:42:00,
2013-06-24 23:47:00,75.9,68.3,29.89,North,4,3.0,8.0,77,0.00,,,0.00,WUHU216DAVISVP2,2013-06-25 04:47:00,
2013-06-24 23:52:00,75.8,68.2,29.90,North,8,4.0,8.0,77,0.00,,,0.00,WUHU216DAVISVP2,2013-06-25 04:52:00,
2013-06-24 23:57:00,75.7,68.1,29.90,North,5,1.0,8.0,77,0.00,,,0.00,WUHU216DAVISVP2,2013-06-25 04:57:00,